Showing default

GSAT 18, 41793

Orbit data source: Space-Track

GSAT 18, 41793 is a payload satellite owned by ISRO (IN) in GEO that was launched on Wed, 05 Oct 2016 UTC via an ARIANE 5ECA launch vehicle from the French Guiana (FRGUI). Payloads include a variety of satellites, spacecraft, and rockets equipped with specific instruments for various scientific and technological missions. These include communications satellites like Starlink; space stations such as the ISS; scientific satellites like the Hubble; Earth observation satellites from companies like Planet Labs, Umbra, and HawkEye 360; GPS; miniature CubeSats for education and research; and military/defense satellites.

Not visible in the next 10 days
GSAT 18 details
Identifier
41793, 2016-060A
Orbit
GEO
Last TLE update2 days ago
Origin
Flag of INISRO (IN / IND)
ManufacturerISRO SAC/Banga
MissionOperational Civil Communications
Bus & MotorI3K, ISRO LAM
Mass3,404 kg wet, ~1,200 kg dry
Launch date (UTC)
2016-10-05 (8 years ago)
Launch vehicle
ARIANE 5ECA
Launch site
French Guiana (FRGUI)
Object type
Payload
Rocket body
Debris
Shape & HBRBox + 2 Pan, 15.5 m
Radar Cross Section13.026 m²

Expand to show TLE details & history

TLE from 2 days ago
0 GSAT 18
1 41793U 16060A   24359.18244007 -.00000054  00000-0  00000-0 0  9996
2 41793   0.0289  90.8516 0003362 158.0564 343.9528  1.00271630 30116
Epoch: 2024-12-24T04:22Z
Definitive object data (Epoch: 2024-12-24T04:22:42.822Z)
Latitude0.00019°
Longitude73.97333°
Altitude35,772.473 km
Speed3.076 km/s
True Right ascension15h 31m 23s
True Declination0° 00' 01"
Sunlit
Object was in daylight at TLE epoch
Visualization TLE readout
Latitude-0.02545°
Longitude-154.9832°
Altitude35,792.072 km
Speed3.074 km/s
Apparent Right ascension00h 15m 55s
Apparent Declination-4° 57' 57"
Sunlit
Object is in daylight
Visualization observer readout
Local Sidereal Time12:19:01
Azimuth1.35° NNE
Elevation-55.043°
Doppler factor1
Orbital elements
Apogee altitude35,801.885 km
Perigee altitude35,773.533 km
Semi-major axis42,165.846 km
Eccentricity0.0003362
Inclination0.0289°
RAAN90.8516°
Arg. of periapsis158.0564°
True anomaly343.94215°
Mean anomaly343.9528°
Eccentric anomaly343.94747°
Mean motion0.25067 °/min
BSTARUnknown
Orbital period1436.15 mins
Loading historical data...
41793 neighbors
Authenticating...
Loading maneuver chart data...
Loading historical data...
Loading historical data...
Loading historical data...
Loading historical data...
Loading historical data...
Loading historical data...
Loading historical data...
Other satellites on launch #60 in the year 2016 (2016-10-05 UTC)

GSAT 18 Visibility forecast

Observer location: undefined°, undefined

GSAT 18 is not visible in the next 10 days
Span
Click to sort rows by Start time (UTC) header in descending order
Start Az.
Max El. time (UTC)
Max El. Az.
Max El.
End time (UTC)
End Az.
|